Regional Weather Roundup
Issued by NWS

Home | Current Version | Previous Version | Text Only | Print | Product List | Glossary Off
Versions: 1 2 3 4 5 6 7 8 9 10 11 12 13 14 15 16 17 18 19 20 21 22 23 24 25 26 27 28 29 30 31 32 33 34 35 36 37 38 39 40 41 42 43 44 45 46 47 48 49 50

000
ASUS42 KTBW 300616
RWRFL
FLORIDA REGIONAL WEATHER ROUNDUP
NATIONAL WEATHER SERVICE TAMPA BAY RUSKIN FL
200 AM EDT THU MAR 30 2017

NOTE: "FAIR" INDICATES FEW OR NO CLOUDS BELOW 12,000 FEET WITH NO
SIGNIFICANT WEATHER AND/OR OBSTRUCTIONS TO VISIBILITY.

FLZ001>010-012>015-112-114-115-300700-
PANHANDLE FLORIDA

CITY           SKY/WX    TMP DP  RH WIND       PRES   REMARKS
PENSACOLA      PTCLDY    71  66  84 S9        29.94F
PENSACOLA NAS  CLEAR     71  66  84 S15       29.93F
MILTON NAS     LGT RAIN  64  64 100 SE6       29.94
CRESTVIEW      FOG       58  58 100 CALM      29.95F VSB 1/4
DUKE FIELD     FAIR      66  62  86 S7        29.93F
VALPARAISO     CLEAR     68  64  86 S8        29.95F
MARY ESTHER    CLEAR     69  66  90 SE10      29.93F
TRI COUNTY     FAIR      59  58  96 CALM      29.97F
PANAMA CITY    FAIR      59  56  89 CALM      29.95F
TYNDALL AFB    CLEAR     61  59  93 SE5       29.96F
APALACHICOLA   CLEAR     61  59  93 SE3       29.97S

STATION/POSITION SKY/WX   TEMP    WIND        PRES    WAVE   SWELL
                          AIR SEA DIR/SP/G            HT/PER HT/PER
                          (F)     (DEG/KT/KT) (MB)    (FT/S) (FT/S)
30.1N   87.6W              71 72  160/ 14/ 16 1013.3F   4/ 6   2/11
29.2N   88.2W              73 73  150/ 17/ 21 1013.6F   5/ 6
28.8N   86.0W              72 72              1015.0    2/ 6
PANAMA CITY BEAC           71 74  150/ 11/ 12 1014.4F
TOWER C                    70     130/  8/  9 1015.4F
28.5N   84.5W              71 71  100/  8/ 10 1015.6    1/ 5

$$
FLZ011-016>038-118-127-128-134-139-239-300700-
NORTH FLORIDA

CITY           SKY/WX    TMP DP  RH WIND       PRES   REMARKS
MARIANNA       CLEAR     64  56  75 CALM      29.96F
TALLAHASSEE    CLEAR     58  55  90 CALM      29.98S
PERRY          CLEAR     59  58  97 CALM      30.00S
CROSS CITY     CLEAR     55  54  94 CALM      29.99F
LAKE CITY      FAIR      61  54  77 E3        30.01F
GAINESVILLE    CLEAR     59  53  80 CALM      30.01F
WILLISTON      CLEAR     63  55  77 MISG      30.01F
PALATKA        FAIR      59  59 100 CALM      30.01F
MAYPORT NAS    CLOUDY    70  63  78 CALM      30.01F
JACKSONVILLE   CLOUDY    69  65  86 CALM      30.00F
JAX NAS        MOCLDY    74  62  66 S9        30.01F
FERNANDINA BEA CLOUDY    72  68  88 CALM      30.00F
ST AUGUSTINE   PTCLDY    66  61  84 CALM      30.02F

STATION/POSITION SKY/WX   TEMP    WIND        PRES    WAVE   SWELL
                          AIR SEA DIR/SP/G            HT/PER HT/PER
                          (F)     (DEG/KT/KT) (MB)    (FT/S) (FT/S)
SHELL POINT      NOT AVBL
KEATON BEACH               64      50/  3/  3 1015.1F
CEDAR KEY                  70        CALM     1016.0F
FERNANDINA                 71 67  110/  3/  5 1017.0F
30.7N   81.3W                 69                N/A     3/11   2/11
MAYPORT                    71 66   CALM  /  2 1016.7F
31.4N   80.9W              65 64   40/  4/  4 1016.6S   2/11   2/11
ST AUGUSTINE               70 69  150/  4/  5 1017.1F

$$
FLZ040-043>046-052-053-057-058-063-144-300700-
INTERIOR CENTRAL FLORIDA

CITY           SKY/WX    TMP DP  RH WIND       PRES   REMARKS
OCALA          CLEAR     61  52  72 CALM      30.01F
THE VILLAGES     N/A     66  59  77 CALM      29.91F
LEESBURG       CLEAR     70  61  73 CALM      30.02F
SANFORD        CLEAR     71  59  65 S3        30.01F
ORLANDO EXEC   CLEAR     69  58  67 SE6       30.01F
ORLANDO INTL   PTCLDY    70  58  65 SE6       30.02F
KISSIMMEE      CLEAR     72  61  68 SE6       30.02F
WINTER HAVEN   CLEAR     70  61  73 N5        30.02F
LAKELAND       CLEAR     64  63  94 CALM      30.02S
BARTOW         FAIR      66  63  88 SW3       30.02S
OKEECHOBEE     PTCLDY   N/A N/A N/A CALM      30.03F

$$
FLZ041-047-054-059-064-141-147-300700-
EAST CENTRAL FLORIDA

CITY           SKY/WX    TMP DP  RH WIND       PRES   REMARKS
DAYTONA BEACH  CLEAR     71  63  77 S6        30.03F
DELAND         CLEAR     64  61  88 SE5       30.01F
JFK SPACE CTR  CLEAR     68  65  90 SW3       30.01F
CAPE CANAVERAL CLEAR     69  66  89 S3        30.01S
PATRICK AFB    CLEAR     71  67  87 S6        30.01F
MELBOURNE      CLEAR     70  65  84 SW5       30.03F
VERO BEACH     CLEAR     69  66  90 SW6       30.02F
FT PIERCE      CLEAR     63  62  97 SW5       30.02F
STUART         CLEAR     72  64  78 CALM      30.03F

STATION/POSITION SKY/WX   TEMP    WIND        PRES    WAVE   SWELL
                          AIR SEA DIR/SP/G            HT/PER HT/PER
                          (F)     (DEG/KT/KT) (MB)    (FT/S) (FT/S)
TRIDENT PIER               73 75  180/  6/  8 1017.7F
28.4N   80.5W                 73                N/A     2/10   2/11
27.5N   80.2W                 75                N/A     3/11   2/11

$$
FLZ050-056-061-142-242-148-248-149-249-151-251-155-255-
160-260-300700-
WEST CENTRAL FLORIDA

CITY           SKY/WX    TMP DP  RH WIND       PRES   REMARKS
CRYSTAL RIVER  FAIR      64  59  82 CALM      30.02S
INVERNESS      FAIR      63  59  88 CALM      30.02F
BROOKSVILLE    CLEAR     64  62  93 CALM      30.02F
CLEARWATER AIR MOCLDY    68  64  88 CALM      30.01F
ST PETE CLEARW MOCLDY    72  65  78 NE5       30.01F
TAMPA INTL     PTCLDY    72  65  78 CALM      30.02F
TAMPA EXEC     CLEAR     63  61  94 CALM      30.02F
PLANT CITY     PTCLDY    66  63  88 CALM      30.03F
MACDILL AFB    CLEAR     67  65  95 CALM      30.01F
PETER O KNIGHT CLEAR     72  68  88 CALM      30.01F
ST PETERSBURG  MOCLDY    72  67  84 NE5       30.00F
SARASOTA       PTCLDY    68  63  84 CALM      30.01S
VENICE           N/A     70  64  83 CALM      30.03S

STATION/POSITION SKY/WX   TEMP    WIND        PRES    WAVE   SWELL
                          AIR SEA DIR/SP/G            HT/PER HT/PER
                          (F)     (DEG/KT/KT) (MB)    (FT/S) (FT/S)
27.3N   84.2W                 74                N/A     1/ 6
CLEARWATER BEACH           72 73   80/  2/  4 1016.5F
MIDDLE TAMPA BAY           73      40/  5/  6 1016.9F
VENICE                     70 73   CALM  /  1 1016.3F

$$
FLZ066-069-070-075>078-162-262-165-265-300700-
SOUTHWEST FLORIDA AND KEYS

CITY           SKY/WX    TMP DP  RH WIND       PRES   REMARKS
PUNTA GORDA    PTCLDY    64  62  93 CALM      30.03F
FT MYERS       PTCLDY    73  67  81 CALM      30.01F
SOUTHWEST INTL CLEAR     70  64  81 CALM      30.01F
NAPLES         CLEAR     71  68  90 CALM      30.01F
IMMOKALEE      MOCLDY    64  63  94 CALM      30.01F
MARATHON       CLEAR     76  66  71 VRB7      30.00F
KEY WEST NAS   PTCLDY    75  64  68 E14       30.00S
KEY WEST INTL  PTCLDY    76  65  68 E13       30.01S

STATION/POSITION SKY/WX   TEMP    WIND        PRES    WAVE   SWELL
                          AIR SEA DIR/SP/G            HT/PER HT/PER
                          (F)     (DEG/KT/KT) (MB)    (FT/S) (FT/S)
NAPLES                        75              1016.3F
26.0N   85.6W              76     110/ 12/ 14 1015.0F   3/ 6
DRY TORTUGAS               76      90/ 13/ 15 1015.6F
SAND KEY                   76     120/ 15/ 17 1016.5F
LONG KEY                   76 78  140/ 10/ 12 1016.2F

$$
FLZ067-068-071>074-168-172>174-300700-
SOUTHEAST FLORIDA

CITY           SKY/WX    TMP DP  RH WIND       PRES   REMARKS
W PALM BEACH   CLEAR     72  63  73 SE5       30.03F
FT LAUDER-EXEC CLEAR     73  61  65 CALM      30.02S
FT LAUDERDALE  PTCLDY    74  63  68 SE7       30.02S
POMPANO BEACH  CLEAR     75  63  66 SE8       30.02F
PEMBROKE PINES CLEAR     71  62  73 CALM      30.04S
OPA LOCKA      CLEAR     72  63  73 CALM      30.03S
MIAMI          PTCLDY    73  63  70 E6        30.03R
WEST KENDALL   CLEAR     66  63  90 CALM      30.02S
HOMESTEAD      CLEAR     72  64  77 E5        30.01F

STATION/POSITION SKY/WX   TEMP    WIND        PRES    WAVE   SWELL
                          AIR SEA DIR/SP/G            HT/PER HT/PER
                          (F)     (DEG/KT/KT) (MB)    (FT/S) (FT/S)
PORT EVERGLADES            76     110/  5/ 10 1016.6F
LAKE WORTH                        130/ 10/ 11   N/A
FOWEY ROCKS                76 77  100/ 14/ 15 1017.0F
SETTLEMENT POINT           74     110/ 10/ 12 1017.1F

$$




USA.gov is the U.S. government's official web portal to all federal, state and local government web resources and services.